STARLINK-3279, 50185

Orbit data source: Space-Track

STARLINK-3279, 50185 is a payload satellite owned by SpaceX/Seattle (US) in LEO that was launched on Sat, 18 Dec 2021 UTC via an FALCON 9 launch vehicle from the Air Force Western Test Range (AFWTR). Payload-class satellites include a variety of spacecraft equipped with specific instruments for various scientific and technological missions. These include communications satellites like Starlink; space stations such as the ISS; scientific satellites like the Hubble; Earth observation satellites from companies like Planet Labs, Umbra, and HawkEye 360; GPS; miniature CubeSats for education and research; and military/defense satellites.

Loading next visibility...
Identifier
50185, 2021-125AF
Orbit
LEO
Country
Flag of USUS
Related business
Manufacturer
SpaceX/Seattle
Mission
Operational Commercial Communications
Bus & Motor
STARLINK, Unknown motor
Mass
290 kg wet, ~270 kg dry
Launch date (UTC)
2021-12-18 (5 years ago)
Launch vehicle
FALCON 9
Launch site
Air Force Western Test Range (AFWTR)
Object type
Payload
Rocket body
Debris
Shape & HBR
Box + 1 Pan, 10.1 m
Radar Cross Section
13.562 m², Large (>1 m²)

Expand to show TLE details & history
Last TLE update: 4 hours ago

TLE from 4 hours ago
0 STARLINK-3279
1 50185U 21125AF  26170.22299833  .00000147  00000-0  27313-4 0  9996
2 50185  53.1613 153.2513 0001251  81.0494 279.0639 15.08836290251933
Epoch: 2026-06-19T05:21Z
TLE epoch observation values (Epoch: 2026-06-19T05:21:07.055Z)
Latitude
-0.00003°
Longitude
165.51682°
Altitude
540.51 km
Speed
7.593 km/s
True Right ascension
10h 13m 00s
True Declination
0° 00' 00"
Sunlit
Object was in daylight at epoch
Visualization orbit readout
Latitude
Unknown
Longitude
Unknown
Altitude
Unknown
Speed
Unknown
Apparent Right ascension
Unknown
Apparent Declination
Unknown
Sunlit
N/A
Visualization observer readout
Local Sidereal Time
20:16:19
Azimuth
Unknown
Elevation
Unknown
Doppler factor
Unknown
Orbital elements
Apogee altitude
540.874 km
Perigee altitude
539.143 km
Semi-major axis
6,918.146 km
Eccentricity
0.00013
Inclination
53.1613°
RAAN
153.2513°
Arg. of periapsis
81.0494°
True anomaly
279.04974°
Mean anomaly
279.0639°
Eccentric anomaly
279.05682°
Mean motion
3.77189 °/min
Orbital period
95.44 mins
BSTAR
0.000027313
Loading maneuver chart data...
Computing Atmospheric mass density...

Documentation

Showing up to 5 results
|